User: anonymous   Login
Location: Unspecified
(0.0000°N, 0.0000°E)
Time: 11:36:15
(UTC+01:00)
Language:

ARIANE DEB (SPELDA) - Orbit

View from above orbital plane
View from above orbital plane
View from above satellite
View from above satellite

Ground track
Ground track

The orbit data is extracted from the following two-line orbital elements,

1 27402U 02015D   18019.94358346 -.00000422  00000-0 -66065-6 0  9993
2 27402   3.7723  15.9500 7072457 167.1509 231.0604  2.49305929139462
Epoch (UTC): 19 January 2018 22:38:45
Eccentricity: 0.7072457
inclination: 3.7723°
perigee height: 348 km
apogee height: 32845 km
right ascension of ascending node: 15.9500°
argument of perigee: 167.1509°
revolutions per day: 2.49305929
mean anomaly at epoch: 231.0604°
orbit number at epoch: 13946

The dashed part of the orbit path shows where the satellite is in the earth's shadow,  

DLR